| time (UTC) | temp F | wind direction | speed knots | gust knots | rain 1hr in | rain 24hr in | rain mn in | humidity % | barometer mb |
| 20260902213037 | 56 | 4 | 0.9 | 4.3 | 0.07 | 0.09 | 0.07 | 88 | 1010.7 |
| 20260902211535 | 56 | 325 | 0.0 | 3.5 | 0.07 | 0.07 | 0.06 | 88 | 1010.6 |
| 20260902210034 | 56 | 156 | 0.0 | 3.5 | 0.06 | 0.06 | 0.04 | 87 | 1010.8 |
| 20260902204608 | 56 | 110 | 1.7 | 4.3 | 0.04 | 0.04 | 0.02 | 86 | 1011.0 |
| 20260902203108 | 57 | 126 | 0.9 | 3.5 | 0.02 | 0.02 | 0.00 | 84 | 1011.0 |
| 20260902201534 | 57 | 169 | 2.6 | 4.3 | 0.00 | 0.00 | 0.00 | 81 | 1011.2 |
| 20260902200034 | 58 | 166 | 4.3 | 9.6 | 0.00 | 0.00 | 0.00 | 78 | 1011.0 |
| 20260902194535 | 58 | 179 | 2.6 | 9.6 | 0.00 | 0.00 | 0.00 | 74 | 1011.0 |
| 20260902193036 | 58 | 139 | 4.3 | 10.4 | 0.00 | 0.00 | 0.00 | 72 | 1010.9 |
| 20260902191534 | 59 | 125 | 4.3 | 10.4 | 0.00 | 0.00 | 0.00 | 71 | 1010.9 |
| 20260902190035 | 60 | 115 | 1.7 | 6.1 | 0.00 | 0.00 | 0.00 | 74 | 1011.0 |
| 20260902184535 | 60 | 298 | 1.7 | 5.2 | 0.00 | 0.00 | 0.00 | 74 | 1011.1 |
| 20260902183036 | 60 | 280 | 0.9 | 2.6 | 0.00 | 0.00 | 0.00 | 73 | 1011.3 |
| 20260902181532 | 60 | 271 | 0.9 | 4.3 | 0.00 | 0.00 | 0.00 | 74 | 1011.1 |
| 20260902180033 | 59 | 262 | 0.0 | 3.5 | 0.00 | 0.00 | 0.00 | 75 | 1011.2 |
| 20260902174609 | 59 | 273 | 1.7 | 7.0 | 0.00 | 0.00 | 0.00 | 74 | 1011.1 |
| 20260902173033 | 61 | 277 | 3.5 | 7.8 | 0.00 | 0.00 | 0.00 | 71 | 1011.0 |
| 20260902171535 | 62 | 286 | 4.3 | 8.7 | 0.00 | 0.00 | 0.00 | 68 | 1011.1 |
| 20260902164535 | 62 | 288 | 2.6 | 7.0 | 0.00 | 0.00 | 0.00 | 68 | 1011.4 |
| 20260902163152 | 59 | 296 | 0.0 | 3.5 | 0.00 | 0.00 | 0.00 | 74 | 1011.6 |
| 20260902161534 | 57 | 327 | 0.0 | 3.5 | 0.00 | 0.00 | 0.00 | 79 | 1011.9 |
| 20260902160035 | 56 | 299 | 0.9 | 3.5 | 0.00 | 0.00 | 0.00 | 81 | 1012.0 |
| 20260902154534 | 55 | 346 | 0.9 | 3.5 | 0.00 | 0.00 | 0.00 | 85 | 1012.2 |
| 20260902153110 | 54 | 120 | 0.0 | 4.3 | 0.00 | 0.00 | 0.00 | 88 | 1012.3 |
| 20260902151537 | 52 | 204 | 0.0 | 4.3 | 0.00 | 0.00 | 0.00 | 91 | 1012.2 |
| 20260902150035 | 51 | 155 | 0.0 | 2.6 | 0.00 | 0.00 | 0.00 | 92 | 1012.4 |
| 20260902144536 | 49 | 133 | 0.0 | 3.5 | 0.00 | 0.00 | 0.00 | 93 | 1012.5 |
| 20260902141531 | 48 | 153 | 1.7 | 3.5 | 0.00 | 0.00 | 0.00 | 94 | 1012.6 |
| 20260902134536 | 46 | 159 | 1.7 | 5.2 | 0.00 | 0.00 | 0.00 | 94 | 1012.6 |
| 20260902133038 | 45 | 186 | 1.7 | 4.3 | 0.00 | 0.00 | 0.00 | 94 | 1012.7 |
| 20260902131538 | 45 | 168 | 1.7 | 4.3 | 0.00 | 0.00 | 0.00 | 93 | 1012.8 |
| 20260902130109 | 45 | 155 | 2.6 | 4.3 | 0.00 | 0.00 | 0.00 | 93 | 1012.7 |
| 20260902124534 | 45 | 146 | 2.6 | 5.2 | 0.00 | 0.00 | 0.00 | 92 | 1012.8 |
| 20260902123034 | 45 | 311 | 0.0 | 4.3 | 0.00 | 0.00 | 0.00 | 91 | 1012.8 |
| 20260902121609 | 46 | 63 | 0.0 | 2.6 | 0.00 | 0.00 | 0.00 | 90 | 1012.9 |
| 20260902120136 | 47 | 242 | 0.0 | 3.5 | 0.00 | 0.00 | 0.00 | 88 | 1013.0 |
| 20260902114532 | 48 | 1 | 0.9 | 3.5 | 0.00 | 0.00 | 0.00 | 86 | 1012.9 |
| 20260902113034 | 50 | 112 | 1.7 | 3.5 | 0.00 | 0.00 | 0.00 | 82 | 1012.9 |
| 20260902111536 | 52 | 215 | 1.7 | 6.1 | 0.00 | 0.00 | 0.00 | 79 | 1012.9 |
| 20260902110142 | 54 | 318 | 3.5 | 7.8 | 0.00 | 0.00 | 0.00 | 76 | 1012.9 |
| 20260902104531 | 55 | 318 | 4.3 | 10.4 | 0.00 | 0.00 | 0.00 | 75 | 1013.0 |
| 20260902101537 | 54 | 296 | 6.1 | 14.8 | 0.00 | 0.00 | 0.00 | 76 | 1013.3 |
| 20260902100037 | 55 | 252 | 3.5 | 8.7 | 0.00 | 0.00 | 0.00 | 74 | 1013.2 |
| 20260902094536 | 56 | 289 | 4.3 | 12.2 | 0.00 | 0.00 | 0.00 | 73 | 1013.5 |
| 20260902093034 | 56 | 299 | 5.2 | 12.2 | 0.00 | 0.00 | 0.00 | 73 | 1013.5 |
| 20260902091536 | 56 | 306 | 4.3 | 11.3 | 0.00 | 0.00 | 0.00 | 73 | 1013.6 |
| 20260902090032 | 56 | 298 | 7.0 | 13.0 | 0.00 | 0.00 | 0.00 | 73 | 1013.5 |
| 20260902084536 | 56 | 311 | 7.0 | 13.0 | 0.00 | 0.00 | 0.00 | 73 | 1013.4 |
| 20260902083036 | 56 | 308 | 7.0 | 15.6 | 0.00 | 0.00 | 0.00 | 73 | 1013.6 |
| 20260902081536 | 55 | 304 | 5.2 | 13.0 | 0.00 | 0.00 | 0.00 | 75 | 1013.7 |
| 20260902073036 | 56 | 302 | 6.1 | 15.6 | 0.00 | 0.00 | 0.00 | 76 | 1013.8 |
| 20260902071531 | 56 | 321 | 7.8 | 17.4 | 0.00 | 0.00 | 0.00 | 75 | 1013.8 |
| 20260902070108 | 56 | 315 | 6.1 | 13.0 | 0.00 | 0.00 | 0.00 | 74 | 1014.1 |
| 20260902064703 | 57 | 308 | 7.0 | 16.5 | 0.00 | 0.00 | 0.00 | 73 | 1014.3 |
| 20260902063035 | 58 | 303 | 7.0 | 13.0 | 0.00 | 0.00 | 0.00 | 72 | 1014.6 |
| 20260902060036 | 58 | 294 | 7.8 | 17.4 | 0.00 | 0.00 | 0.00 | 70 | 1014.6 |
| 20260902054535 | 58 | 294 | 7.0 | 13.0 | 0.00 | 0.00 | 0.00 | 70 | 1014.8 |
| 20260902053036 | 58 | 296 | 6.1 | 12.2 | 0.00 | 0.00 | 0.00 | 69 | 1014.8 |
| 20260902051534 | 59 | 288 | 8.7 | 16.5 | 0.00 | 0.00 | 0.00 | 69 | 1014.6 |
| 20260902050034 | 58 | 290 | 7.8 | 15.6 | 0.00 | 0.00 | 0.00 | 70 | 1014.5 |
| 20260902044534 | 59 | 288 | 7.8 | 15.6 | 0.00 | 0.00 | 0.00 | 70 | 1014.4 |
| 20260902043035 | 59 | 296 | 7.8 | 16.5 | 0.00 | 0.00 | 0.00 | 69 | 1014.2 |
| 20260902041536 | 59 | 299 | 7.0 | 16.5 | 0.00 | 0.00 | 0.00 | 68 | 1014.2 |
| 20260902040034 | 59 | 292 | 7.8 | 20.9 | 0.00 | 0.00 | 0.00 | 69 | 1013.9 |
| 20260902034535 | 59 | 293 | 7.0 | 14.8 | 0.00 | 0.00 | 0.00 | 69 | 1013.7 |
| 20260902033143 | 59 | 294 | 9.6 | 19.1 | 0.00 | 0.00 | 0.00 | 69 | 1013.4 |
| 20260902031537 | 59 | 292 | 8.7 | 19.1 | 0.00 | 0.00 | 0.00 | 68 | 1013.3 |
| 20260902024536 | 59 | 296 | 6.1 | 14.8 | 0.00 | 0.00 | 0.00 | 68 | 1013.7 |
| 20260902023035 | 59 | 293 | 5.2 | 13.0 | 0.00 | 0.00 | 0.00 | 67 | 1013.6 |
| 20260902021537 | 60 | 296 | 7.8 | 20.0 | 0.00 | 0.00 | 0.00 | 67 | 1013.6 |
| 20260902020036 | 61 | 301 | 6.1 | 13.9 | 0.00 | 0.00 | 0.00 | 64 | 1013.4 |
| 20260902013037 | 62 | 297 | 8.7 | 17.4 | 0.00 | 0.00 | 0.00 | 62 | 1013.3 |
| 20260902011535 | 63 | 290 | 8.7 | 19.1 | 0.00 | 0.00 | 0.00 | 61 | 1013.2 |
| 20260902010034 | 65 | 296 | 8.7 | 19.1 | 0.00 | 0.00 | 0.00 | 60 | 1013.0 |
| 20260902004535 | 65 | 285 | 7.0 | 14.8 | 0.00 | 0.00 | 0.00 | 61 | 1012.9 |
| 20260902003030 | 65 | 293 | 7.0 | 15.6 | 0.00 | 0.00 | 0.00 | 61 | 1012.7 |
| 20260902001552 | 65 | 293 | 6.1 | 17.4 | 0.00 | 0.00 | 0.00 | 62 | 1012.7 |
| 20260902000111 | 65 | 296 | 7.0 | 13.0 | 0.00 | 0.00 | 0.00 | 63 | 1012.7 |
| 20260901233033 | 65 | 332 | 6.1 | 14.8 | 0.00 | 0.00 | 0.00 | 62 | 1012.7 |
| 20260901231532 | 68 | 338 | 7.0 | 13.9 | 0.00 | 0.00 | 0.00 | 59 | 1012.5 |
| 20260901224649 | 70 | 322 | 7.8 | 16.5 | 0.00 | 0.00 | 0.00 | 56 | 1012.3 |
| 20260901223111 | 70 | 312 | 7.8 | 17.4 | 0.00 | 0.00 | 0.00 | 56 | 1012.2 |
| 20260901221535 | 72 | 308 | 7.8 | 16.5 | 0.00 | 0.00 | 0.00 | 55 | 1012.1 |
| 20260901220035 | 72 | 311 | 7.0 | 13.9 | 0.00 | 0.00 | 0.00 | 57 | 1011.8 |
| 20260901214536 | 70 | 348 | 7.0 | 14.8 | 0.00 | 0.00 | 0.00 | 57 | 1011.8 |